Notices

What's New in latest Release from April 7th, 2021:

- Updated Glossary, including Speed of Maximum Gust, and Total Hourly Precipitation

- Updated national and regional climate services offices contacts and prices information

- Addition of station inventory lists for 1981-2010, 1971-2000, and 1961-1990 Normals.

If you haven't already, please take our survey and provide feedback about our website: https://eccc.sondage-survey.ca/f/LanguageSelection.aspx?s=442ca660-fcf1-47c0-95a9-59707d6fd709

Hourly Data Report for July 25, 2020

TORONTO CITY
ONTARIO
Current Station Operator: ECCC - MSC

43°40'00.000" N
79°24'00.000" W
112.50 m
6158355
71508
XTO

Download Data

Hourly Data (July 2020)
Hourly Data Report for July 25, 2020
TIME
LST
Temp Definition
°C
Dew Point Definition
°C
Rel Hum Definition
%
Precip. Amount Definition
mm

Wind Dir Definition
10's deg

Wind Spd Definition
km/h
Visibility Definition
km
Stn Press Definition
kPa
Hmdx Definition


Wind Chill Definition


Weather Definition


00:00 21.3 14.4 65 0.0       100.61 25   LegendNANA
01:00 20.7 14.0 65 0.0       100.59     LegendNANA
02:00 20.3 14.6 70 0.0       100.55     LegendNANA
03:00 20.2 14.9 72 0.0       100.57     LegendNANA
04:00 19.8 14.8 73 0.0       100.59     LegendNANA
05:00 19.2 15.4 78 0.0       100.59     LegendNANA
06:00 19.4 15.5 78 0.0       100.64     LegendNANA
07:00 22.3 15.8 67 0.0       100.66 27   LegendNANA
08:00 24.3 15.3 57 0.0       100.68 28   LegendNANA
09:00 25.5 16.4 57 0.0       100.69 30   LegendNANA
10:00 27.1 15.0 48 0.0       100.73 31   LegendNANA
11:00 26.5 13.8 46 0.0       100.66 30   LegendNANA
12:00 27.3 14.7 46 0.0       100.62 31   LegendNANA
13:00 27.3 12.4 40 0.0       100.58 30   LegendNANA
14:00 28.4 12.2 37 0.2       100.55 31   LegendNANA
15:00 29.6 12.1 34 0.0       100.46 32   LegendNANA
16:00 29.2 11.9 34 0.5       100.40 31   LegendNANA
17:00 28.8 12.5 37 0.0       100.40 31   LegendNANA
18:00 27.9 15.1 46 0.0       100.37 32   LegendNANA
19:00 27.5 14.9 46 0.0       100.37 31   LegendNANA
20:00 25.5 15.6 55 0.0       100.32 30   LegendNANA
21:00 24.2 14.9 56 0.0       100.37 28   LegendNANA
22:00 23.8 11.0 44 0.0       100.39 26   LegendNANA
23:00 22.9 11.8 49 0.0       100.42 25   LegendNANA

Notes on Data Quality.

Legend

  • E = Estimated
  • M = Missing
  • NA = Not Available*
  • [empty] = Indicates an unobserved value
Date modified: